Weather History for Colby, KS

Change the Weather History Date:

Friday, November 2, 2012

  Actual Average (KGLD) Record (KGLD)
Temperature  
Mean Temperature 50 °F 45 °F  
Max Temperature 68 °F 59 °F 81 °F (1931)
Min Temperature 33 °F 31 °F -4 °F (1951)
Degree Days  
Heating Degree Days 14 20  
Month to date heating degree days 39  
Since 1 July heating degree days 579  
Cooling Degree Days 0 0  
Month to date cooling degree days 0  
Year to date cooling degree days 941  
Moisture  
Dew Point 36 °F    
Average Humidity 64    
Maximum Humidity 93    
Minimum Humidity 30    
Precipitation  
Precipitation 0.00 in 0.03 in 1.14 in (1998)
Month to date precipitation 0.06  
Year to date precipitation 18.55  
Snow  
Snow - 0.20 in - ()
Month to date snowfall 0.3  
Since 1 July snowfall 2.9  
Since 1 September snowfall 2.9  
Snow Depth -    
Sea Level Pressure  
Sea Level Pressure 29.95 in    
Wind  
Wind Speed 10 mph ()    
Max Wind Speed 28 mph    
Max Gust Speed 33 mph    
Visibility 10.0 miles    
Events      
T = Trace of Precipitation, MM = Missing Value Source: Averaged Metar Reports

Daily Weather History Graph

Daily Weather History Graph

Search for Another Location

Airport:

Trip Planner

Search our weather history database for the weather conditions in past years. The results will help you decide how hot, cold, wet, or windy it might be!

Date:

Astronomy

Nov. 02, 2012 Rise Set
Actual Time 8:13 AM CDT 6:40 PM CDT
Civil Twilight 7:46 AM CDT 7:08 PM CDT
Nautical Twilight 7:14 AM CDT 7:40 PM CDT
Astronomical Twilight 6:42 AM CDT 8:12 PM CDT
Moon 9:30 PM CDT (11/2) 11:35 AM CDT (11/2)
Length of Visible Light 11h 22m
Length of Day
10h 26m
Waning Gibbous, 87% of the Moon is Illuminated
Nov 2
Waning Gibbous
Nov 6
Last Quarter
Nov 13
New
Nov 20
First Quarter
Nov 28
Full

Hourly Weather History & Observations

Time (CDT) Temp. Windchill Dew Point Humidity Pressure Visibility Wind Dir Wind Speed Gust Speed Precip Events Conditions
12:15 AM 51.8 °F - 35.6 °F 54% 29.87 in 10.0 mi SSE 6.9 mph - N/A   Clear
12:35 AM 50.0 °F - 35.6 °F 58% 29.87 in 10.0 mi SSE 5.8 mph - N/A   Clear
12:55 AM 50.0 °F - 35.6 °F 58% 29.86 in 10.0 mi SSE 5.8 mph - N/A   Clear
1:15 AM 48.2 °F - 35.6 °F 62% 29.86 in 10.0 mi SE 4.6 mph - N/A   Clear
1:35 AM 46.4 °F 44.3 °F 35.6 °F 66% 29.86 in 10.0 mi SE 4.6 mph - N/A   Clear
1:55 AM 46.4 °F 44.3 °F 35.6 °F 66% 29.86 in 10.0 mi SE 4.6 mph - N/A   Clear
2:15 AM 46.4 °F - 35.6 °F 66% 29.85 in 10.0 mi Calm Calm - N/A   Clear
2:35 AM 42.8 °F 39.3 °F 33.8 °F 70% 29.86 in 10.0 mi North 5.8 mph - N/A   Clear
2:55 AM 41.0 °F 36.4 °F 33.8 °F 76% 29.86 in 10.0 mi NNW 6.9 mph - N/A   Clear
3:15 AM 41.0 °F 38.0 °F 33.8 °F 76% 29.85 in 10.0 mi NE 4.6 mph - N/A   Clear
3:35 AM 41.0 °F 37.1 °F 33.8 °F 76% 29.84 in 10.0 mi ENE 5.8 mph - N/A   Clear
3:55 AM 35.6 °F 32.8 °F 32.0 °F 87% 29.83 in 10.0 mi East 3.5 mph - N/A   Clear
4:15 AM 37.4 °F 34.9 °F 32.0 °F 81% 29.82 in 10.0 mi East 3.5 mph - N/A   Clear
4:35 AM 39.2 °F - 33.8 °F 81% 29.82 in 10.0 mi Calm Calm - N/A   Clear
4:55 AM 33.8 °F - 32.0 °F 93% 29.81 in 10.0 mi Calm Calm - N/A   Clear
5:15 AM 35.6 °F 28.6 °F 32.0 °F 87% 29.83 in 10.0 mi WNW 9.2 mph - N/A   Clear
5:35 AM 35.6 °F 29.9 °F 32.0 °F 87% 29.82 in 10.0 mi WNW 6.9 mph - N/A   Clear
5:55 AM 33.8 °F 25.3 °F 32.0 °F 93% 29.83 in 10.0 mi WNW 11.5 mph - N/A   Clear
6:15 AM 35.6 °F 28.0 °F 32.0 °F 87% 29.83 in 10.0 mi NW 10.4 mph - N/A   Clear
6:35 AM 35.6 °F 29.2 °F 32.0 °F 87% 29.84 in 10.0 mi NW 8.1 mph - N/A   Clear
6:55 AM 37.4 °F 28.9 °F 32.0 °F 81% 29.84 in 10.0 mi NW 13.8 mph - N/A   Clear
7:15 AM 37.4 °F 28.9 °F 32.0 °F 81% 29.84 in 10.0 mi NW 13.8 mph - N/A   Clear
7:35 AM 39.2 °F 32.5 °F 33.8 °F 81% 29.86 in 10.0 mi NNW 10.4 mph - N/A   Clear
7:55 AM 42.8 °F 37.5 °F 35.6 °F 76% 29.85 in 10.0 mi NNW 9.2 mph - N/A   Clear
8:15 AM 42.8 °F 37.5 °F 35.6 °F 76% 29.86 in 10.0 mi NNW 9.2 mph - N/A   Clear
8:35 AM 42.8 °F 36.2 °F 35.6 °F 76% 29.87 in 10.0 mi NW 12.7 mph - N/A   Clear
8:55 AM 44.6 °F 37.4 °F 37.4 °F 76% 29.87 in 10.0 mi NNW 16.1 mph - N/A   Clear
9:15 AM 44.6 °F 37.4 °F 37.4 °F 76% 29.89 in 10.0 mi NW 16.1 mph - N/A   Clear
9:35 AM 46.4 °F 40.1 °F 37.4 °F 71% 29.90 in 10.0 mi NW 15.0 mph - N/A   Clear
9:55 AM 48.2 °F - 37.4 °F 66% 29.91 in 10.0 mi NNW 12.7 mph - N/A   Clear
10:15 AM 51.8 °F - 37.4 °F 58% 29.91 in 10.0 mi NNW 15.0 mph - N/A   Clear
10:35 AM 55.4 °F - 39.2 °F 54% 29.92 in 10.0 mi NNW 16.1 mph 20.7 mph N/A   Clear
10:55 AM 59.0 °F - 37.4 °F 45% 29.93 in 10.0 mi NNW 19.6 mph 23.0 mph N/A   Clear
11:15 AM 60.8 °F - 37.4 °F 42% 29.93 in 10.0 mi NNW 23.0 mph 27.6 mph N/A   Clear
11:35 AM 64.4 °F - 37.4 °F 37% 29.94 in 10.0 mi North 24.2 mph 31.1 mph N/A   Clear
11:55 AM 64.4 °F - 37.4 °F 37% 29.94 in 10.0 mi NNW 24.2 mph 32.2 mph N/A   Clear
12:15 PM 62.6 °F - 37.4 °F 39% 29.94 in 10.0 mi NNW 25.3 mph 31.1 mph N/A   Clear
12:35 PM 68.0 °F - 35.6 °F 30% 29.94 in 10.0 mi North 24.2 mph 28.8 mph N/A   Clear
12:55 PM 66.2 °F - 35.6 °F 32% 29.94 in 10.0 mi NNW 24.2 mph 28.8 mph N/A   Clear
1:15 PM 64.4 °F - 35.6 °F 34% 29.95 in 10.0 mi NNW 23.0 mph 27.6 mph N/A   Clear
1:35 PM 64.4 °F - 35.6 °F 34% 29.95 in 10.0 mi NNW 24.2 mph 32.2 mph N/A   Clear
1:55 PM 62.6 °F - 37.4 °F 39% 29.95 in 10.0 mi NNW 23.0 mph 29.9 mph N/A   Clear
2:15 PM 62.6 °F - 37.4 °F 39% 29.95 in 10.0 mi NNW 20.7 mph 28.8 mph N/A   Clear
2:35 PM 62.6 °F - 37.4 °F 39% 29.95 in 10.0 mi NNW 27.6 mph 31.1 mph N/A   Clear
2:55 PM 60.8 °F - 37.4 °F 42% 29.95 in 10.0 mi NNW 23.0 mph 28.8 mph N/A   Clear
3:15 PM 60.8 °F - 37.4 °F 42% 29.95 in 10.0 mi North 24.2 mph 28.8 mph N/A   Clear
3:35 PM 62.6 °F - 37.4 °F 39% 29.96 in 10.0 mi North 24.2 mph 29.9 mph N/A   Clear
3:55 PM 62.6 °F - 37.4 °F 39% 29.96 in 10.0 mi North 26.5 mph 33.4 mph N/A   Clear
4:15 PM 60.8 °F - 37.4 °F 42% 29.97 in 10.0 mi North 26.5 mph 29.9 mph N/A   Clear
4:35 PM 60.8 °F - 37.4 °F 42% 29.98 in 10.0 mi North 20.7 mph - N/A   Clear
4:55 PM 60.8 °F - 39.2 °F 45% 29.98 in 10.0 mi North 21.9 mph 31.1 mph N/A   Clear
5:15 PM 59.0 °F - 39.2 °F 48% 29.99 in 10.0 mi North 21.9 mph 28.8 mph N/A   Clear
5:35 PM 59.0 °F - 39.2 °F 48% 30.00 in 10.0 mi North 17.3 mph 28.8 mph N/A   Clear
5:55 PM 57.2 °F - 39.2 °F 51% 30.02 in 10.0 mi North 18.4 mph 25.3 mph N/A   Clear
6:15 PM 55.4 °F - 39.2 °F 54% 30.03 in 10.0 mi North 16.1 mph - N/A   Clear
6:55 PM 51.8 °F - 39.2 °F 62% 30.05 in 10.0 mi North 11.5 mph - N/A   Clear
7:15 PM 50.0 °F - 37.4 °F 62% 30.06 in 10.0 mi NNE 8.1 mph - N/A   Clear
7:35 PM 46.4 °F 43.5 °F 37.4 °F 71% 30.07 in 10.0 mi NNE 5.8 mph - N/A   Clear
7:55 PM 44.6 °F 42.2 °F 35.6 °F 71% 30.08 in 10.0 mi NNE 4.6 mph - N/A   Clear
8:15 PM 44.6 °F 39.7 °F 35.6 °F 71% 30.08 in 10.0 mi North 9.2 mph - N/A   Clear
8:35 PM 46.4 °F 41.1 °F 37.4 °F 71% 30.08 in 10.0 mi North 11.5 mph - N/A   Clear
8:55 PM 42.8 °F 37.5 °F 35.6 °F 76% 30.08 in 10.0 mi North 9.2 mph - N/A   Clear
9:15 PM 42.8 °F 39.3 °F 35.6 °F 76% 30.10 in 10.0 mi North 5.8 mph - N/A   Clear
9:35 PM 39.2 °F 34.2 °F 33.8 °F 81% 30.09 in 10.0 mi NNE 6.9 mph - N/A   Clear
9:55 PM 41.0 °F 36.4 °F 35.6 °F 81% 30.11 in 10.0 mi North 6.9 mph - N/A   Clear
10:15 PM 41.0 °F 36.4 °F 35.6 °F 81% 30.12 in 10.0 mi North 6.9 mph - N/A   Clear
10:35 PM 39.2 °F 34.2 °F 35.6 °F 87% 30.13 in 10.0 mi North 6.9 mph - N/A   Clear
10:55 PM 37.4 °F 33.8 °F 33.8 °F 87% 30.14 in 10.0 mi North 4.6 mph - N/A   Clear
11:15 PM 33.8 °F 29.6 °F 32.0 °F 93% 30.14 in 10.0 mi WNW 4.6 mph - N/A   Clear
11:35 PM 33.8 °F 27.7 °F 32.0 °F 93% 30.14 in 10.0 mi NW 6.9 mph - N/A   Clear
11:55 PM 33.8 °F 27.0 °F 32.0 °F 93% 30.15 in 10.0 mi NW 8.1 mph - N/A   Clear